This demonstration page uses our WeatherBlox Daily Observations layout. Learn more.

Left ArrowRight Arrow

41.55636, -103.73856

Hourly Observations for December 3, 2020

Temp ( °F °C ) Dew Point ( °F °C ) Humidity (%) Winds ( mph kmh ) Pressure ( in mb ) Visibility ( mi km ) Precip ( " mm )
12:58 am 00:58 Clear 17 -8.5 7 -13.8 66 66 W 9 15 30.66 1038 10 16 0.00 0.00
1:58 am 01:58 Clear 17 -8.6 7 -13.8 66 66 W 8 13 30.66 1038 10 16 0.00 0.00
2:58 am 02:58 Clear 18 -7.7 7 -13.9 61 61 W 8 13 30.64 1037 10 16 0.00 0.00
3:58 am 03:58 Clear 17 -8.5 6 -14.4 63 63 W 9 15 30.62 1037 10 16 0.00 0.00
4:58 am 04:58 Clear 19 -7.4 6 -14.7 56 56 W 8 13 30.60 1036 10 16 0.00 0.00
5:58 am 05:58 Clear 18 -7.8 6 -14.7 58 58 W 8 13 30.61 1036 10 16 0.00 0.00
6:58 am 06:58 Clear 17 -8.5 5 -14.8 61 61 WSW 8 13 30.49 1033 10 16 0.00 0.00
7:58 am 07:58 Sunny 18 -7.7 8 -13.6 63 63 WSW 8 13 30.51 1033 10 16 0.00 0.00
8:58 am 08:58 Sunny 27 -2.9 8 -13.2 45 45 W 12 19 30.48 1032 10 16 0.00 0.00
9:58 am 09:58 Sunny 33 0.7 6 -14.6 31 31 WNW 12 19 30.44 1031 10 16 0.00 0.00
10:58 am 10:58 Sunny 38 3.3 4 -15.5 24 24 NW 16 26 30.41 1030 10 16 0.00 0.00
11:59 am 11:59 Sunny 42 5.3 2 -16.5 19 19 NW 17 28 30.37 1028 10 16 0.00 0.00
12:58 pm 12:58 Sunny 44 6.8 -1 -18.5 15 15 NW 20 31 30.32 1027 10 16 0.00 0.00
1:58 pm 13:58 Sunny 45 7.3 -1 -18.6 14 14 NNW 20 31 30.30 1026 10 16 0.00 0.00
2:58 pm 14:58 Sunny 45 7.3 -1 -18.2 14 14 NW 16 26 30.29 1026 10 16 0.00 0.00
3:58 pm 15:58 Sunny 43 5.9 0 -17.8 16 16 NW 9 15 30.30 1026 10 16 0.00 0.00
4:58 pm 16:58 Clear 36 2.2 2 -16.9 23 23 WNW 9 15 30.32 1027 10 16 0.00 0.00
5:58 pm 17:58 Clear 31 -0.5 2 -16.5 29 29 W 7 11 30.35 1028 10 16 0.00 0.00
6:58 pm 18:58 Clear 31 -0.6 5 -15 33 33 W 3 6 30.36 1028 10 16 0.00 0.00
7:58 pm 19:58 Clear 29 -1.4 6 -14.4 37 37 WSW 8 13 30.35 1028 10 16 0.00 0.00
8:58 pm 20:58 Clear 28 -2.1 7 -14 40 40 W 7 11 30.33 1027 10 16 0.00 0.00
9:58 pm 21:58 Clear 29 -1.4 9 -13 41 41 W 9 15 30.30 1026 10 16 0.00 0.00
10:58 pm 22:58 Clear 28 -2 9 -12.8 44 44 WSW 7 11 30.30 1026 10 16 0.00 0.00
11:58 pm 23:58 Clear 27 -2.7 9 -12.6 47 47 W 9 15 30.29 1026 10 16 0.00 0.00

Powered by AerisWeather